Regional Weather Roundup
Issued by NWS

Home | Current Version | Previous Version | Graphics & Text | Print | Product List | Glossary Off
Versions: 1 2 3 4 5 6 7 8 9 10 11 12 13 14 15 16 17 18 19 20 21 22 23 24 25 26 27 28 29 30 31 32 33 34 35 36 37 38 39 40 41 42 43 44 45 46 47 48 49 50

000
ASUS43 KTOP 131508
RWRKS

WEATHER ROUNDUP FOR KANSAS
NATIONAL WEATHER SERVICE GOODLAND KS
1000 AM CDT SUN JUL 13 2014

NOTE:  "FAIR" INDICATES FEW OR NO CLOUDS BELOW 12,000 FEET WITH NO
SIGNIFICANT WEATHER AND/OR OBSTRUCTIONS TO VISIBILITY.

KSZ001>006-013>018-027>032-041>047-131600-
NORTHWEST KANSAS

CITY           SKY/WX    TMP DP  RH WIND       PRES   REMARKS
GOODLAND       MOSUNNY   77  62  59 NE7       30.24R
HAYS           MOSUNNY   77  61  57 NE16      30.12R
HILL CITY      PTSUNNY   80  62  54 NE10      30.16R
RUSSELL        MOSUNNY   77  65  66 NE16      30.09F
$$

KSZ061>065-074>080-084>089-131600-
SOUTHWEST KANSAS

CITY           SKY/WX    TMP DP  RH WIND       PRES   REMARKS
DODGE CITY     MOSUNNY   77  64  64 NE13      30.15R
ELKHART          N/A     74  62  66 NW5         N/A
GARDEN CITY    PTSUNNY   75  63  66 NE14      30.20R
GREAT BEND     PTSUNNY   75  64  69 NE13      30.09F
LIBERAL        PTSUNNY   75  63  64 NW9       30.21S
PRATT          SUNNY     77  64  65 N10       30.09F
$$

KSZ066>073-081>083-090>101-131600-
SOUTHEAST KANSAS

CITY           SKY/WX    TMP DP  RH WIND       PRES   REMARKS
CHANUTE        SUNNY     82  63  52 VRB3      30.02F
COFFEYVILLE    SUNNY     84  65  52 SW14      30.00F
HUTCHINSON     PTSUNNY   76  69  79 N8        30.06R
MEDICINE LODGE   N/A     80  70  71 N13       30.06R
NEWTON         PTSUNNY   75  66  73 N14G22    30.06S
PARSONS        SUNNY     83  67  58 SW8       30.02F
WICHITA INTL   PTSUNNY   79  70  74 N10       30.03R
WICHITA JABRA  MOSUNNY   79  69  71 N7        30.03R
WICHITA MCCONL MOSUNNY   78  69  72 N9        30.03R
WINFIELD       SUNNY     82  65  56 W12       30.03S
$$

KSZ007>012-019>026-033>040-048>060-102>105-131600-
NORTHEAST KANSAS

CITY           SKY/WX    TMP DP  RH WIND       PRES   REMARKS
CONCORDIA      MOSUNNY   77  68  73 N8        30.09F
EMPORIA        PTSUNNY   78  65  63 E5        30.02F
LAWRENCE       PTSUNNY   78  71  79 NW8       30.04R
MANHATTAN      CLOUDY    75  70  84 N6        30.06R
MARYSVILLE     MOSUNNY   75  70  83 N8        30.08S
OLATHE IND     LGT RAIN  73  71  93 N9        30.04R
OLATHE EXE     CLOUDY    73  71  93 N5        30.04R
SALINA         CLOUDY    77  70  79 N13       30.07S
TOPEKA BILLARD PTSUNNY   79  73  82 N9        30.04S
TOPEKA FORBES  PTSUNNY   77  72  84 VRB5      30.05R
$$



USA.gov is the U.S. government's official web portal to all federal, state and local government web resources and services.